Regional Weather Roundup
Issued by NWS

Home | Current Version | Previous Version | Text Only | Print | Product List | Glossary On
Versions: 1 2 3 4 5 6 7 8 9 10 11 12 13 14 15 16 17 18 19 20 21 22 23 24 25 26 27 28 29 30 31 32 33 34 35 36 37 38 39 40 41 42 43 44 45 46 47 48 49 50
000
ASUS43 KFSD 280310
RWRSD

WEATHER ROUNDUP FOR SOUTH DAKOTA
NATIONAL WEATHER SERVICE SIOUX FALLS SD
1000 PM CDT THU AUG 27 2015

NOTE: "FAIR" INDICATES FEW OR NO CLOUDS BELOW 12,000 FEET WITH NO
SIGNIFICANT WEATHER AND/OR OBSTRUCTIONS TO VISIBILITY.


SDZ001>005-009-010-012>017-280400-
NORTHWEST AND NORTH CENTRAL SOUTH DAKOTA

CITY           SKY/WX    TMP DP  RH WIND       PRES   REMARKS
BUFFALO          N/A     70  56  61 W6        29.91R
FAITH            N/A     68  60  75 S13       29.98R
MOBRIDGE       MOCLDY    66  65  96 SE3       29.92R
$$

SDZ012>016-024>037-041>051-057-063-072>074-280400-
SOUTHWEST AND SOUTH CENTRAL SOUTH DAKOTA

CITY           SKY/WX    TMP DP  RH WIND       PRES   REMARKS
RAPID CTY ARPT CLEAR     63  60  90 CALM      30.03R
PIERRE         CLOUDY    69  67  93 E7        29.92S
CUSTER         PTCLDY    59  52  77 CALM      30.15S
ELLSWORTH AFB  PTCLDY    67  62  83 S2        30.01R
PHILIP         CLEAR     63  62  97 CALM      29.96S
PINE RIDGE     CLEAR     59  55  87 E5        30.02R
WINNER         FAIR      71  68  90 CALM      29.92R FOG
$$

SDZ004>011-016>023-039-040-280400-
NORTHEAST SOUTH DAKOTA

CITY           SKY/WX    TMP DP  RH WIND       PRES   REMARKS
ABERDEEN       CLOUDY    68  65  90 SE6       29.93S
WATERTOWN      CLOUDY    70  65  84 SE6       29.96R
BROOKINGS      CLOUDY    68  63  83 S12       29.97F
SISSETON         N/A     67  65  93 S5        29.93R
$$

SDZ017-020-022-023-036>040-048>070-280400-
SOUTHEAST SOUTH DAKOTA

CITY           SKY/WX    TMP DP  RH WIND       PRES   REMARKS
SIOUX FALLS    LGT RAIN  67  64  90 E9        29.96F
HURON          LGT RAIN  71  68  90 E8        29.91F
CHAMBERLAIN    CLOUDY    68  68  99 E7        29.91S
MITCHELL       LGT RAIN  68  67  96 E12       29.90F
YANKTON        CLOUDY    70  68  94 E14G20    29.91R
$$

ABBREVIATIONS USED IN REMARKS
   TC - TEMPERATURE IN CELSIUS
  WCI - WIND CHILL INDEX
   HX - HEAT INDEX
  VSB - VISIBILITY



USA.gov is the U.S. government's official web portal to all federal, state and local government web resources and services.